Terug naar catalogus

CZ-2C DEB

ActiefPO
NORAD 43534·DEBRIS·🇨🇳 China

Gelanceerd Jul 9, 2018 vanaf Jiuquan Satellite Launch Center

Loading…

Volgende Passages (komende 24 uur)

TLE

VersSource: Space-Track

Epoch: Sep 14, 2026, 01:40 UTC

1 43534U 18056F   26257.07003500  .00022372  00000-0  64814-3 0  9998
2 43534  98.1128  96.5052 0011295  66.5976 293.6452 15.35526785447423

Volg CZ-2C DEB in realtime met AllMySat

Download on the App Store